Location: Battersea Observatory
(44.4318°N, 76.3841°W)
Time: 22:19:42
(UTC-04:00)

Tiros 1 despin weight - Pass Details

Date: 26 January 2022
Orbit: 592 x 639 km, 48.2° (Epoch: 25 May)

Event Time Altitude Azimuth Distance (km) Brightness Sun altitude
Rises 21:28:37 0° 292° (WNW) 2,920 ? -46.2°
Enters shadow 21:29:21 - 291° (WNW) 2,629 ? -46.4°
Reaches altitude 10° 21:30:56 10° 290° (WNW) 2,017 - -46.6°
Maximum altitude 21:35:34 70° 207° (SSW) 678 - -47.4°
Drops below altitude 10° 21:40:13 10° 124° (SE) 2,026 - -48.1°
Sets 21:42:33 0° 122° (ESE) 2,934 - -48.5°
